Regional Weather Roundup
Issued by NWS

Home | Current Version | Previous Version | Text Only | Print | Product List | Glossary Off
Versions: 1 2 3 4 5 6 7 8 9 10 11 12 13 14 15 16 17 18 19 20 21 22 23 24 25 26 27 28 29 30 31 32 33 34 35 36 37 38 39 40 41 42 43 44 45 46 47 48 49 50

000
ASUS45 KBOU 261807
RWRCO

WEATHER ROUNDUP FOR COLORADO
NATIONAL WEATHER SERVICE DENVER/BOULDER CO
1200 PM MDT SUN APR 26 2015

NOTE: "FAIR" INDICATES FEW OR NO CLOUDS BELOW 12000 FEET WITH NO
SIGNIFICANT WEATHER AND/OR OBSTRUCTIONS TO VISIBILITY.

COZ001>005-013-030-031-261900-
...NORTHWEST COLORADO...

CITY           SKY/WX    TMP DP  RH WIND       PRES   REMARKS
CRAIG          PTSUNNY   55  38  52 VRB3      29.77F
HAYDEN         PTSUNNY   54  34  47 E9        29.77F
MEEKER         PTSUNNY   52  40  63 SW14      29.78S
MOUNT WERNER   NOT AVBL
STEAMBOAT SPGS PTSUNNY   51  35  55 CALM      29.78F
WALDEN         CLOUDY    43  32  65 NE5       29.86R
$$

COZ006>008-011-261900-
...WEST CENTRAL VALLEYS...

CITY           SKY/WX    TMP DP  RH WIND       PRES   REMARKS
GRAND JUNCTION PTSUNNY   47  41  80 NW3       29.80S
MONTROSE       CLOUDY    46  41  82 NW15      29.80F
EAGLE          CLOUDY    48  36  61 CALM      29.80S
RIFLE          PTSUNNY   53  43  68 W14       29.76F
DELTA          CLOUDY    52  44  74 MISG      29.77F
NUCLA          PTSUNNY   46  37  71 NW6       29.83F
$$

COZ017>023-064>068-261900-
...SOUTHWEST COLORADO...

CITY           SKY/WX    TMP DP  RH WIND       PRES   REMARKS
DURANGO        PTSUNNY   45  39  79 SE6       29.76F
CORTEZ         CLOUDY    46  39  76 W10       29.79S
PAGOSA SPRINGS DRIZZLE   41  38  92 E3        29.79F
TELLURIDE      PTSUNNY   37  35  92 W13       29.82S
WOLF CREEK PAS NOT AVBL
$$

COZ009-010-012-014-032>034-037-058>063-261900-
...CENTRAL COLORADO...

CITY           SKY/WX    TMP DP  RH WIND       PRES   REMARKS
ASPEN          PTSUNNY   44  34  67 N7        29.78S
BUENA VISTA    CLOUDY    40  35  83 NE9       29.84R
COPPER MTN     CLOUDY    30  27  86 E12       29.92S WCI  21
BERTHOUD PASS  LGT SNOW  21  14  73 MISG      29.96S VSB 3/4
COTTONWOOD PAS FOG       37  34  87 CALM      29.87S VSB 3/4
GUNNISON       PTSUNNY   50  27  40 E9        29.78F
KREMMLING      CLOUDY    43  34  70 N6        29.84R
LEADVILLE      HVY SNOW  29  29 100 S10       29.86R VSB 1/4 WCI  20
SALIDA         CLOUDY    45  36  70 S14       29.88R
SUNLIGHT       FOG       34  32  93 NW3       29.91R VSB 1/2
WILKERSON PASS SNOW     N/A N/A N/A E10G18    29.93S VSB 1/4
$$

COZ069>075-261900-
...SAN LUIS VALLEY/SANGRE DE CRISTO MOUNTAINS...

CITY           SKY/WX    TMP DP  RH WIND       PRES   REMARKS
ALAMOSA        PTSUNNY   48  32  53 CALM      29.76F
LA VETA PASS   FOG       34  32  93 NE7       29.85S THUNDER VSB<1/4
SAGUACHE       CLOUDY    46  32  57 SE6       29.79F
$$

COZ035-036-038>040-261900-
...NORTHERN COLORADO FRONT RANGE...

CITY           SKY/WX    TMP DP  RH WIND       PRES   REMARKS
DENVER INTL AP LGT RAIN  42  42 100 NE15      29.87F FOG
DMNS CITY PARK   N/A     43  41  95 NE9       29.89S
AURORA         NOT AVBL
FRONT RANGE AP FOG       45  43  93 NE14      29.88F VSB 1
ERIE MUNI ARPT DRIZZLE   45  41  88 NE7       29.90S
BOULDER MUN AP DRIZZLE   45  43  93 NE9       29.89F
CENTENNIAL     LGT RAIN  42  41  96 NE7       29.87S FOG
BROOMFIELD     LGT RAIN  43  41  93 NE6       29.89S
FORT COLLINS   CLOUDY    45  41  87 E7        29.92S
LONGMONT       LGT RAIN  47  44  90 NE5       29.92S
$$

COZ041-046-047-076>085-087-088-261900-
...PIKES PEAK/PALMER DIVIDE AND SOUTHERN FOOTHILLS...

CITY           SKY/WX    TMP DP  RH WIND       PRES   REMARKS
COLO. SPRINGS  LGT RAIN  43  41  93 E20       29.85S
A. F. ACADEMY  NOT AVBL
ELLICOTT       LGT RAIN N/A N/A N/A E17G23    29.84F
FALCON         DRIZZLE   40  40 100 E15       29.88R
FORT CARSON    DRIZZLE   44  43  99 E14       29.83S
LIMON          CLOUDY    42  41  96 E17       29.87S FOG
MONUMENT HILL  CLOUDY    41  37  87 SE12      29.86S
TRINIDAD       PTSUNNY   58  33  39 CALM      29.74F
$$

COZ042>045-048>051-090-091-261900-
...NORTHEAST COLORADO...

CITY           SKY/WX    TMP DP  RH WIND       PRES   REMARKS
GREELEY ARPT   CLOUDY    45  39  81 E16       29.92R
AKRON          CLOUDY    41  41 100 E15       29.91S FOG
BURLINGTON     FOG       43  41  93 E16       29.90S VSB 1/2
WRAY           CLOUDY   N/A N/A N/A E10       29.94S FOG
STERLING       CLOUDY    43  43 100 E9        29.93S FOG
HOLYOKE        CLOUDY    45  41  87 E10       29.96S FOG
FORT MORGAN    LGT RAIN  43  41  93 E16       29.91S
$$

COZ086-089-092>099-261900-
...SOUTHEAST COLORADO...

CITY           SKY/WX    TMP DP  RH WIND       PRES   REMARKS
PUEBLO         CLOUDY    46  44  93 E22       29.81R
LA JUNTA       CLOUDY    48  46  93 E22       29.82F FOG
LAMAR          CLOUDY    47  45  93 E21G28    29.83S FOG
SPRINGFIELD      N/A     49  48  97 E21       29.79F
$$


USA.gov is the U.S. government's official web portal to all federal, state and local government web resources and services.